Location: Jangalapalle
(16.8036°N, 80.6370°E)
Time: 12:25:47
(UTC+00:00)

Cosmos 1932 - Pass Details

Date: 05 August 2024
Orbit: 943 x 986 km, 65.0° (Epoch: 09 September)

Event Time Altitude Azimuth Distance (km) Brightness Sun altitude
Rises 14:22:30 0° 336° (NNW) 3,604 8.2 -17.5°
Reaches altitude 10° 14:25:01 10° 336° (NNW) 2,662 7.5 -18.1°
Maximum altitude 14:31:15 88° 249° (WSW) 955 4.4 -19.4°
Enters shadow 14:35:13 24° 159° (SSE) 1,856 5.6 -20.3°
